Flag for Germany Weather past 2 weeks in Jena, Thuringia, Germany

Now
64 °F

Partly sunny.


Feels Like: 64 °F
Forecast: 53 / 63 °F
Wind: 9 mph from West

Location: Erfurt-Bindersleben

Current Time: Aug 30, 2014 at 6:48:28 PM

Latest Report: Aug 30, 2014 at 6:20 PM


Visibility: N/A

Pressure: 30.04 "Hg

Humidity: 64%

Dew point: 52 °F

Location of JenaLocation

Historic Weather in Jena — Graph

°F

Jena temperature yesterday

Maximum temperature yesterday: 72 °F (at 4:20 PM)
Minimum temperature yesterday: 59 °F (at 4:20 AM)
Average temperature yesterday: 64 °F

Past Weeks' High & Low Weather Summary

 TemperatureHumidityPressure
High72 °F (Aug 28, 2:20 PM)100% (Aug 21, 6:20 AM)30.09 "Hg (Aug 21, 6:20 AM)
Low43 °F (Aug 21, 5:20 AM)37% (Aug 22, 2:50 PM)29.68 "Hg (Aug 26, 8:20 AM)
Average57 °F75%29.95 "Hg
* Reported Aug 15 5:20 PM — Aug 30 5:50 PM, Jena, Weather by CustomWeather, © 2014

Note: Actual official high and low records may vary slightly from our data, if they occured in-between our weather recording intervals... More about our weather records

Advertising

Jena weather history for previous 24 hours

 ConditionsComfort  
Time TempWeatherWind HumidityBarometerVisibility
5:50 PM
Aug 30
66 °FPartly sunny.12 mph64%30.04 "HgN/A
5:20 PM68 °FPartly sunny.12 mph56%30.04 "HgN/A
4:50 PM68 °FScattered clouds.12 mph60%30.04 "HgN/A
4:20 PM68 °FPartly sunny.13 mph56%30.04 "HgN/A
3:50 PM68 °FScattered clouds.12 mph56%30.04 "HgN/A
3:20 PM68 °FScattered clouds.15 mph53%30.04 "HgN/A
2:50 PM68 °FScattered clouds.14 mph56%30.07 "HgN/A
2:20 PM66 °FScattered clouds.16 mph60%30.07 "HgN/A
1:50 PM66 °FScattered clouds.13 mph60%30.07 "HgN/A
1:20 PM66 °FBroken clouds.9 mph60%30.07 "HgN/A
12:50 PM66 °FPartly sunny.13 mph64%30.07 "HgN/A
12:20 PM64 °FPartly sunny.12 mph64%30.07 "HgN/A
11:50 AM64 °FPartly sunny.10 mph64%30.07 "HgN/A
11:20 AM64 °FPartly sunny.13 mph60%30.07 "HgN/A
10:50 AM64 °FScattered clouds.13 mph60%30.07 "HgN/A
10:20 AM64 °FScattered clouds.12 mph64%30.07 "HgN/A
9:50 AM64 °FScattered clouds.8 mph73%30.07 "HgN/A
9:20 AM63 °FSunny.8 mph77%30.07 "Hg10 mi
8:50 AM61 °FSunny.9 mph83%30.07 "Hg10 mi
8:20 AM59 °FSunny.8 mph88%30.07 "Hg10 mi
7:50 AM57 °FSunny.1 mph94%30.07 "Hg10 mi
7:20 AM57 °FClear.5 mph94%30.04 "Hg10 mi
6:50 AM57 °FClear.6 mph94%30.04 "Hg10 mi
6:20 AM57 °FClear.6 mph94%30.04 "Hg10 mi
5:50 AM57 °FClear.6 mph94%30.04 "Hg10 mi
5:20 AM57 °FPassing clouds.6 mph100%30.04 "HgN/A
4:50 AM57 °FPartly cloudy.5 mph100%30.04 "HgN/A
4:20 AM57 °FClear.2 mph100%30.04 "Hg10 mi
3:50 AM59 °FClear.3 mph94%30.04 "Hg10 mi
3:20 AM59 °FPartly cloudy.5 mph94%30.04 "HgN/A
2:50 AM59 °FPassing clouds.5 mph100%30.04 "HgN/A
2:20 AM59 °FPassing clouds.5 mph100%30.04 "HgN/A
1:50 AM59 °FSprinkles. Passing clouds.5 mph100%30.04 "HgN/A
1:20 AM59 °FSprinkles. Passing clouds.5 mph100%30.04 "HgN/A
12:50 AM61 °FSprinkles. Partly cloudy.5 mph94%30.07 "HgN/A
12:20 AM61 °FSprinkles. Partly cloudy.5 mph94%30.07 "HgN/A
11:50 PM
Aug 29
59 °FClear.5 mph94%30.04 "Hg10 mi
11:20 PM61 °FClear.1 mph88%30.04 "Hg10 mi
9:20 PM63 °FPassing clouds.6 mph83%30.01 "HgN/A
8:50 PM63 °FBroken clouds.9 mph83%30.01 "HgN/A
8:20 PM66 °FPartly sunny.5 mph68%30.01 "HgN/A
7:50 PM66 °FPartly sunny.6 mph68%30.01 "HgN/A
7:20 PM68 °FPartly sunny.6 mph60%30.01 "HgN/A
6:50 PM70 °FPassing clouds.7 mph60%30.01 "HgN/A
6:20 PM72 °FPassing clouds.9 mph53%30.01 "HgN/A
Weather by CustomWeather, © 2014

See weather overviewHow to use our weather pages